Location: Chagrin Falls Park
(41.4139°N, 81.3865°W)
Time: 04:03:09
(UTC+00:00)

STARLINK-2734 - Pass Details

Date: 31 July 2021
Orbit: 546 x 548 km, 53.1° (Epoch: 21 September)

Event Time Altitude Azimuth Distance (km) Brightness Sun altitude
Rises 02:54:20 0° 296° (WNW) 2,720 8.3 -20.1°
Reaches altitude 10° 02:56:58 10° 281° (W) 1,822 7.0 -20.4°
Maximum altitude 03:00:07 21° 231° (SW) 1,250 5.4 -20.8°
Enters shadow 03:00:43 21° 218° (SW) 1,274 5.3 -20.8°
